User: anonymous   Login
Location: Unspecified
(0.0000°N, 0.0000°E)
Time: 10:34:24
(UTC+00:00)
Language:

Cosmos 1633 - Orbit

View from above orbital plane
View from above orbital plane
View from above satellite
View from above satellite

Ground track
Ground track

The orbit data is extracted from the following two-line orbital elements,

1 15592U 85020A   18021.79409603  .00001253  00000-0  42767-4 0  9998
2 15592  82.5386 100.1794 0014932 120.7735 239.4977 15.29223564797690
Epoch (UTC): 21 January 2018 19:03:29
Eccentricity: 0.0014932
inclination: 82.5386°
perigee height: 468 km
apogee height: 488 km
right ascension of ascending node: 100.1794°
argument of perigee: 120.7735°
revolutions per day: 15.29223564
mean anomaly at epoch: 239.4977°
orbit number at epoch: 79769

The dashed part of the orbit path shows where the satellite is in the earth's shadow,  

DLR